• In Hungary
  • List of Countries
  • For 7 days
  • Water Temperature
  • Satellite Maps
  • Weather Map
  • News
  • Weather Widgets
  • user-avatar
    Login

    Hourly Weather Peredivannya

    Today, 23 October, Tuesday

    Time Temperature Precipitation Wind Pressure Humidity
    00:00 +9°C° 0 mm 1 mps 742 mmHg 83%
    01:00 +8°C° 0 mm 1 mps 741 mmHg 86%
    02:00 +6°C° 0 mm 1 mps 741 mmHg 81%
    03:00 +5°C° 0 mm 2 mps 741 mmHg 89%
    04:00 +4°C° 0 mm 2 mps 741 mmHg 94%
    05:00 +4°C° 0 mm 2 mps 740 mmHg 96%
    06:00 +4°C° 0 mm 2 mps 740 mmHg 96%
    07:00 +5°C° 0 mm 2 mps 740 mmHg 95%
    08:00 +5°C° 0 mm 3 mps 740 mmHg 93%
    09:00 +6°C° 0 mm 4 mps 740 mmHg 93%
    10:00 +7°C° 0 mm 5 mps 739 mmHg 91%
    11:00 +8°C° 0 mm 5 mps 739 mmHg 89%
    12:00 +9°C° 0 mm 5 mps 738 mmHg 82%
    13:00 +9°C° 0 mm 5 mps 737 mmHg 78%
    14:00 +11°C° 0 mm 4 mps 736 mmHg 79%
    15:00 +11°C° 0 mm 4 mps 735 mmHg 81%
    16:00 +11°C° 0 mm 4 mps 734 mmHg 83%
    17:00 +10°C° 0 mm 5 mps 733 mmHg 80%
    18:00 +9°C° 0 mm 5 mps 732 mmHg 80%
    19:00 +8°C° 0.1 mm 5 mps 731 mmHg 85%
    20:00 +7°C° 0.2 mm 5 mps 730 mmHg 94%
    21:00 +7°C° 0.6 mm 5 mps 729 mmHg 97%
    22:00 +8°C° 0 mm 6 mps 728 mmHg 82%
    23:00 +7°C° 0 mm 6 mps 727 mmHg 82%

    Tomorrow, 24 October, Wednesday

    Time Temperature Precipitation Wind Pressure Humidity
    00:00 +7°C° 0 mm 6 mps 726 mmHg 83%
    01:00 +7°C° 0 mm 6 mps 725 mmHg 83%
    02:00 +8°C° 0 mm 7 mps 724 mmHg 83%
    03:00 +8°C° 0 mm 7 mps 723 mmHg 83%
    04:00 +8°C° 0 mm 6 mps 722 mmHg 84%
    05:00 +8°C° 0 mm 7 mps 722 mmHg 84%
    06:00 +6°C° 0 mm 8 mps 721 mmHg 84%
    07:00 +6°C° 0 mm 7 mps 721 mmHg 86%
    08:00 +6°C° 0 mm 8 mps 721 mmHg 88%
    09:00 +6°C° 0.3 mm 9 mps 721 mmHg 89%
    10:00 +6°C° 0.1 mm 9 mps 721 mmHg 86%
    11:00 +6°C° 0 mm 11 mps 721 mmHg 82%
    12:00 +5°C° 0.2 mm 10 mps 721 mmHg 93%
    13:00 +5°C° 0.1 mm 10 mps 721 mmHg 89%
    14:00 +5°C° 0 mm 10 mps 722 mmHg 87%
    15:00 +4°C° 0 mm 11 mps 723 mmHg 83%
    16:00 +3°C° 0 mm 11 mps 723 mmHg 83%
    17:00 +2°C° 0 mm 11 mps 724 mmHg 85%
    18:00 +2°C° 0 mm 10 mps 724 mmHg 90%
    19:00 +1°C° 0.1 mm 9 mps 724 mmHg 98%
    20:00 +1°C° 0.1 mm 10 mps 725 mmHg 95%
    21:00 +1°C° 0 mm 11 mps 725 mmHg 94%
    22:00 +1°C° 0 mm 11 mps 725 mmHg 95%
    23:00 +1°C° 0 mm 11 mps 726 mmHg 94%

    Day after tomorrow, 25 October, Thursday

    Time Temperature Precipitation Wind Pressure Humidity
    00:00 +1°C° 0 mm 11 mps 726 mmHg 95%
    01:00 -1°C° 0 mm 11 mps 726 mmHg 96%
    02:00 -1°C° 0 mm 11 mps 727 mmHg 97%
    03:00 -1°C° 0 mm 11 mps 727 mmHg 97%
    04:00 -1°C° 0 mm 11 mps 728 mmHg 97%
    05:00 -1°C° 0 mm 11 mps 728 mmHg 97%
    06:00 -1°C° 0 mm 11 mps 729 mmHg 96%
    07:00 0°C° 0 mm 10 mps 730 mmHg 96%
    08:00 0°C° 0 mm 9 mps 730 mmHg 94%
    09:00 0°C° 0 mm 8 mps 731 mmHg 93%
    10:00 0°C° 0 mm 8 mps 731 mmHg 93%
    11:00 +1°C° 0 mm 8 mps 731 mmHg 89%
    12:00 +4°C° 0 mm 7 mps 731 mmHg 84%
    13:00 +5°C° 0 mm 7 mps 731 mmHg 73%
    14:00 +6°C° 0 mm 7 mps 730 mmHg 66%
    15:00 +5°C° 0 mm 6 mps 730 mmHg 65%
    16:00 +6°C° 0 mm 5 mps 729 mmHg 70%
    17:00 +5°C° 0.2 mm 5 mps 729 mmHg 95%
    18:00 +3°C° 0.3 mm 6 mps 728 mmHg 99%
    19:00 +5°C° 0.6 mm 4 mps 728 mmHg 97%
    20:00 +5°C° 0 mm 7 mps 728 mmHg 90%
    21:00 +5°C° 0.5 mm 7 mps 728 mmHg 94%
    22:00 +5°C° 0.5 mm 7 mps 728 mmHg 94%
    23:00 +5°C° 3.2 mm 10 mps 728 mmHg 96%

    26 October, Friday

    Time Temperature Precipitation Wind Pressure Humidity
    00:00 +5°C° 0.4 mm 8 mps 729 mmHg 95%
    01:00 +5°C° 0 mm 7 mps 729 mmHg 94%
    02:00 +4°C° 0 mm 7 mps 730 mmHg 95%
    03:00 +4°C° 0 mm 7 mps 730 mmHg 96%
    04:00 +4°C° 0 mm 7 mps 731 mmHg 96%
    05:00 +4°C° 0 mm 7 mps 731 mmHg 96%
    06:00 +5°C° 0 mm 5 mps 731 mmHg 97%
    07:00 +5°C° 0 mm 5 mps 732 mmHg 96%
    08:00 +4°C° 0 mm 6 mps 733 mmHg 94%
    09:00 +6°C° 0 mm 5 mps 733 mmHg 94%
    10:00 +6°C° 0 mm 5 mps 734 mmHg 91%
    11:00 +7°C° 0 mm 6 mps 734 mmHg 89%
    12:00 +7°C° 0 mm 6 mps 734 mmHg 88%
    13:00 +7°C° 0 mm 5 mps 734 mmHg 88%
    14:00 +8°C° 0 mm 5 mps 734 mmHg 82%
    15:00 +8°C° 0 mm 4 mps 735 mmHg 85%
    16:00 +9°C° 0 mm 2 mps 735 mmHg 87%
    17:00 +10°C° 0 mm 1 mps 735 mmHg 90%
    18:00 +10°C° 0 mm 1 mps 735 mmHg 90%
    19:00 +8°C° 0 mm 2 mps 735 mmHg 93%
    20:00 +7°C° 0 mm 2 mps 735 mmHg 95%
    21:00 +7°C° 0 mm 2 mps 735 mmHg 94%
    22:00 +7°C° 0 mm 2 mps 735 mmHg 95%
    23:00 +6°C° 0 mm 2 mps 735 mmHg 98%

    27 October, Saturday

    Time Temperature Precipitation Wind Pressure Humidity
    00:00 +6°C° 0 mm 2 mps 735 mmHg 98%
    01:00 +6°C° 0 mm 2 mps 734 mmHg 97%
    02:00 +5°C° 0 mm 2 mps 734 mmHg 97%

    28 October, Sunday

    Time Temperature Precipitation Wind Pressure Humidity

    29 October, Monday

    Time Temperature Precipitation Wind Pressure Humidity
    Show more